Weather History for KARG - November, 2013

Change the Weather History Date:

Saturday, November 2, 2013

  Actual Average Record
Temperature  
Mean Temperature 50 °F -  
Max Temperature 59 °F 62 °F 82 °F (2003)
Min Temperature 42 °F 45 °F 30 °F (2006)
Degree Days  
Heating Degree Days 14    
Moisture  
Dew Point 40 °F    
Average Humidity 67    
Maximum Humidity 82    
Minimum Humidity 45    
Precipitation  
Precipitation 0.00 in - - ()
Sea Level Pressure  
Sea Level Pressure 30.08 in    
Wind  
Wind Speed 10 mph (NW)    
Max Wind Speed 24 mph    
Max Gust Speed 29 mph    
Visibility 10 miles    
Events      
Averages and records for this station are not official NWS values.
T = Trace of Precipitation, MM = Missing Value Source: NWS Daily Summary

Daily Weather History Graph

Daily Weather History Graph

Search for Another Location

Airport or City:

Trip Planner

Search our weather history database for the weather conditions in past years. The results will help you decide how hot, cold, wet, or windy it might be!

Date:

Astronomy

Nov. 02, 2013 Rise Set
Actual Time 7:27 AM CDT 6:06 PM CDT
Civil Twilight 7:01 AM CDT 6:32 PM CDT
Nautical Twilight 6:30 AM CDT 7:03 PM CDT
Astronomical Twilight 6:00 AM CDT 7:33 PM CDT
Moon 6:26 AM CDT (11/2) 5:37 PM CDT (11/2)
Length of Visible Light 11h 31m
Length of Day
10h 38m
Waning Crescent, 1% of the Moon is Illuminated
Nov 2
Waning Crescent
Nov 3
New
Nov 9
First Quarter
Nov 17
Full
Nov 25
Last Quarter

Hourly Weather History & Observations

Time (CDT) Temp. Windchill Dew Point Humidity Pressure Visibility Wind Dir Wind Speed Gust Speed Precip Events Conditions
12:15 AM 53.6 °F - 42.8 °F 67% 29.92 in 10.0 mi WNW 5.8 mph - N/A   Partly Cloudy
12:35 AM 51.8 °F - 42.8 °F 71% 29.93 in 10.0 mi WNW 6.9 mph - N/A   Clear
12:55 AM 51.8 °F - 42.8 °F 71% 29.93 in 10.0 mi West 6.9 mph - N/A   Clear
1:15 AM 51.8 °F - 42.8 °F 71% 29.93 in 10.0 mi WNW 8.1 mph - N/A   Clear
1:35 AM 51.8 °F - 42.8 °F 71% 29.93 in 10.0 mi WNW 9.2 mph - N/A   Clear
1:55 AM 51.8 °F - 42.8 °F 71% 29.93 in 10.0 mi West 9.2 mph - N/A   Clear
2:15 AM 51.8 °F - 42.8 °F 71% 29.93 in 10.0 mi West 9.2 mph - N/A   Clear
2:35 AM 50.0 °F - 42.8 °F 76% 29.94 in 10.0 mi West 8.1 mph - N/A   Clear
2:55 AM 50.0 °F - 42.8 °F 76% 29.94 in 10.0 mi West 8.1 mph - N/A   Clear
3:15 AM 48.2 °F - 42.8 °F 82% 29.94 in 10.0 mi West 6.9 mph - N/A   Clear
3:35 AM 48.2 °F - 42.8 °F 82% 29.94 in 10.0 mi West 9.2 mph - N/A   Clear
3:55 AM 48.2 °F - 42.8 °F 82% 29.94 in 10.0 mi West 8.1 mph - N/A   Clear
4:15 AM 48.2 °F - 42.8 °F 82% 29.94 in 10.0 mi West 6.9 mph - N/A   Clear
4:35 AM 48.2 °F - 42.8 °F 82% 29.95 in 10.0 mi West 8.1 mph - N/A   Clear
4:55 AM 48.2 °F - 41.0 °F 76% 29.96 in 10.0 mi West 10.4 mph - N/A   Clear
5:15 AM 48.2 °F - 41.0 °F 76% 29.96 in 10.0 mi West 9.2 mph - N/A   Clear
5:35 AM 46.4 °F 41.9 °F 41.0 °F 81% 29.97 in 10.0 mi West 9.2 mph - N/A   Clear
5:55 AM 46.4 °F 41.9 °F 41.0 °F 81% 29.98 in 10.0 mi West 9.2 mph - N/A   Clear
6:15 AM 46.4 °F 42.4 °F 39.2 °F 76% 29.99 in 10.0 mi West 8.1 mph - N/A   Clear
6:35 AM 46.4 °F 41.9 °F 41.0 °F 81% 30.00 in 10.0 mi West 9.2 mph - N/A   Clear
6:55 AM 46.4 °F 42.4 °F 39.2 °F 76% 30.01 in 10.0 mi West 8.1 mph - N/A   Clear
7:15 AM 46.4 °F 41.9 °F 39.2 °F 76% 30.01 in 10.0 mi West 9.2 mph - N/A   Clear
7:35 AM 46.4 °F 41.9 °F 39.2 °F 76% 30.03 in 10.0 mi WNW 9.2 mph - N/A   Clear
7:55 AM 46.4 °F 42.4 °F 39.2 °F 76% 30.04 in 10.0 mi WNW 8.1 mph - N/A   Clear
8:15 AM 46.4 °F 41.5 °F 41.0 °F 81% 30.04 in 10.0 mi WNW 10.4 mph - N/A   Clear
8:35 AM 48.2 °F - 41.0 °F 76% 30.05 in 10.0 mi West 10.4 mph - N/A   Clear
8:55 AM 48.2 °F - 42.8 °F 82% 30.05 in 10.0 mi WNW 11.5 mph 17.3 mph N/A   Clear
9:15 AM 48.2 °F - 41.0 °F 76% 30.06 in 10.0 mi WNW 13.8 mph - N/A   Clear
9:35 AM 51.8 °F - 42.8 °F 71% 30.07 in 10.0 mi NW 13.8 mph - N/A   Clear
9:55 AM 51.8 °F - 41.0 °F 67% 30.07 in 10.0 mi NW 17.3 mph - N/A   Clear
10:15 AM 53.6 °F - 42.8 °F 67% 30.08 in 10.0 mi NW 21.9 mph - N/A   Clear
10:35 AM 53.6 °F - 41.0 °F 62% 30.09 in 10.0 mi NW 21.9 mph 25.3 mph N/A   Scattered Clouds
10:55 AM 53.6 °F - 41.0 °F 62% 30.09 in 10.0 mi NW 20.7 mph 24.2 mph N/A   Scattered Clouds
11:15 AM 55.4 °F - 39.2 °F 54% 30.10 in 10.0 mi NW 19.6 mph 27.6 mph N/A   Scattered Clouds
11:35 AM 55.4 °F - 39.2 °F 54% 30.11 in 10.0 mi NW 16.1 mph - N/A   Scattered Clouds
11:55 AM 55.4 °F - 39.2 °F 54% 30.11 in 10.0 mi NNW 18.4 mph 25.3 mph N/A   Scattered Clouds
12:15 PM 55.4 °F - 39.2 °F 54% 30.11 in 10.0 mi NW 24.2 mph 28.8 mph N/A   Mostly Cloudy
12:35 PM 55.4 °F - 39.2 °F 54% 30.11 in 10.0 mi NW 19.6 mph - N/A   Mostly Cloudy
12:55 PM 57.2 °F - 39.2 °F 51% 30.11 in 10.0 mi NW 16.1 mph - N/A   Scattered Clouds
1:15 PM 59.0 °F - 39.2 °F 48% 30.10 in 10.0 mi NNW 18.4 mph 24.2 mph N/A   Scattered Clouds
1:35 PM 55.4 °F - 39.2 °F 54% 30.10 in 10.0 mi NW 16.1 mph - N/A   Mostly Cloudy
1:55 PM 57.2 °F - 39.2 °F 51% 30.09 in 10.0 mi NW 20.7 mph 27.6 mph N/A   Partly Cloudy
2:15 PM 57.2 °F - 39.2 °F 51% 30.10 in 10.0 mi NNW 11.5 mph 23.0 mph N/A   Clear
2:35 PM 57.2 °F - 39.2 °F 51% 30.10 in 10.0 mi NNW 19.6 mph - N/A   Scattered Clouds
2:55 PM 57.2 °F - 39.2 °F 51% 30.11 in 10.0 mi NNW 16.1 mph 20.7 mph N/A   Mostly Cloudy
3:15 PM 59.0 °F - 37.4 °F 45% 30.11 in 10.0 mi NW 13.8 mph - N/A   Mostly Cloudy
3:35 PM 59.0 °F - 37.4 °F 45% 30.11 in 10.0 mi NW 18.4 mph - N/A   Mostly Cloudy
3:55 PM 57.2 °F - 37.4 °F 48% 30.11 in 10.0 mi NNW 13.8 mph 17.3 mph N/A   Mostly Cloudy
4:15 PM 59.0 °F - 39.2 °F 48% 30.12 in 10.0 mi NNW 13.8 mph - N/A   Mostly Cloudy
4:35 PM 57.2 °F - 37.4 °F 48% 30.13 in 10.0 mi NW 13.8 mph 20.7 mph N/A   Overcast
4:55 PM 57.2 °F - 37.4 °F 48% 30.13 in 10.0 mi NNW 12.7 mph - N/A   Mostly Cloudy
5:15 PM 57.2 °F - 37.4 °F 48% 30.13 in 10.0 mi NW 16.1 mph 21.9 mph N/A   Mostly Cloudy
5:35 PM 55.4 °F - 37.4 °F 51% 30.13 in 10.0 mi NNW 8.1 mph - N/A   Partly Cloudy
5:55 PM 55.4 °F - 37.4 °F 51% 30.14 in 10.0 mi NNW 8.1 mph - N/A   Partly Cloudy
6:15 PM 53.6 °F - 37.4 °F 54% 30.14 in 10.0 mi NW 6.9 mph - N/A   Clear
6:35 PM 51.8 °F - 37.4 °F 58% 30.16 in 10.0 mi NW 5.8 mph - N/A   Clear
6:55 PM 50.0 °F - 39.2 °F 66% 30.16 in 10.0 mi NW 5.8 mph - N/A   Clear
7:15 PM 50.0 °F - 37.4 °F 62% 30.17 in 10.0 mi WNW 5.8 mph - N/A   Clear
7:35 PM 48.2 °F - 37.4 °F 66% 30.18 in 10.0 mi NW 4.6 mph - N/A   Clear
7:55 PM 46.4 °F 43.5 °F 37.4 °F 71% 30.19 in 10.0 mi NNW 5.8 mph - N/A   Clear
8:15 PM 46.4 °F 43.5 °F 37.4 °F 71% 30.19 in 10.0 mi NW 5.8 mph - N/A   Clear
8:35 PM 46.4 °F 42.9 °F 39.2 °F 76% 30.20 in 10.0 mi NNW 6.9 mph - N/A   Clear
8:55 PM 46.4 °F 43.5 °F 37.4 °F 71% 30.20 in 10.0 mi NW 5.8 mph - N/A   Clear
9:15 PM 46.4 °F 42.9 °F 37.4 °F 71% 30.21 in 10.0 mi WNW 6.9 mph - N/A   Clear
9:35 PM 44.6 °F 41.4 °F 37.4 °F 76% 30.21 in 10.0 mi NW 5.8 mph - N/A   Clear
9:55 PM 44.6 °F 42.2 °F 37.4 °F 76% 30.22 in 10.0 mi NW 4.6 mph - N/A   Clear
10:15 PM 44.6 °F 43.1 °F 37.4 °F 76% 30.22 in 10.0 mi WNW 3.5 mph - N/A   Clear
10:35 PM 44.6 °F 43.1 °F 37.4 °F 76% 30.23 in 10.0 mi NW 3.5 mph - N/A   Clear
10:55 PM 44.6 °F 42.2 °F 37.4 °F 76% 30.23 in 10.0 mi NW 4.6 mph - N/A   Clear
11:15 PM 44.6 °F 42.2 °F 37.4 °F 76% 30.23 in 10.0 mi WNW 4.6 mph - N/A   Clear
11:35 PM 42.8 °F 39.3 °F 37.4 °F 81% 30.22 in 10.0 mi NW 5.8 mph - N/A   Clear
11:55 PM 42.8 °F 38.6 °F 37.4 °F 81% 30.22 in 10.0 mi WNW 6.9 mph - N/A   Clear